UAL1281 KDEN-KSAN

Flight info

Callsign UAL1281
Flight time 1h 50m
Altitude 34000
Route BAYLR6 TEHRU PLNDL Q86 TTRUE LUCKI1
Aircraft B738/M-SDE2E3FGHIRWXY/LB1

Departure

Time 2026-04-20 02:27
Airport Denver International Airport (KDEN)

Arrival

Time 2026-04-20 04:18
Airport San Diego International Airport (KSAN)
Time Latitude Longitude Altitude Speed Heading
2026-04-20 01:59 39.85936 -104.67039 5379 ft 0 kts 180°
2026-04-20 01:59 39.85931 -104.67039 5376 ft 0 kts 180°
2026-04-20 02:14 39.85936 -104.67039 5374 ft 4 kts 180°
2026-04-20 02:14 39.85963 -104.67038 5377 ft 4 kts 180°
2026-04-20 02:15 39.85990 -104.67038 5379 ft 4 kts 180°
2026-04-20 02:15 39.86017 -104.67038 5377 ft 3 kts 180°
2026-04-20 02:15 39.86021 -104.67038 5379 ft 0 kts 180°
2026-04-20 02:20 39.86020 -104.67038 5379 ft 0 kts 180°
2026-04-20 02:20 39.86018 -104.67041 5379 ft 1 kts 213°
2026-04-20 02:20 39.86017 -104.67050 5374 ft 3 kts 267°
2026-04-20 02:20 39.86038 -104.67130 5378 ft 15 kts 293°
2026-04-20 02:21 39.86065 -104.67454 5374 ft 20 kts 271°
2026-04-20 02:21 39.86066 -104.67649 5376 ft 23 kts 270°
2026-04-20 02:21 39.86069 -104.67866 5378 ft 25 kts 270°
2026-04-20 02:22 39.86069 -104.68070 5376 ft 14 kts 270°
2026-04-20 02:22 39.86049 -104.68155 5376 ft 12 kts 236°
2026-04-20 02:22 39.86029 -104.68274 5375 ft 16 kts 270°
2026-04-20 02:22 39.86001 -104.68389 5370 ft 15 kts 204°
2026-04-20 02:23 39.85894 -104.68395 5369 ft 16 kts 179°
2026-04-20 02:23 39.85772 -104.68397 5370 ft 19 kts 180°
2026-04-20 02:23 39.85638 -104.68398 5371 ft 19 kts 180°
2026-04-20 02:23 39.85504 -104.68400 5376 ft 19 kts 180°
2026-04-20 02:24 39.85374 -104.68401 5376 ft 19 kts 180°
2026-04-20 02:24 39.85256 -104.68403 5376 ft 13 kts 184°
2026-04-20 02:24 39.85207 -104.68451 5378 ft 11 kts 259°
2026-04-20 02:24 39.85205 -104.68567 5375 ft 16 kts 269°
2026-04-20 02:25 39.85201 -104.68744 5362 ft 24 kts 269°
2026-04-20 02:25 39.85198 -104.68988 5354 ft 27 kts 269°
2026-04-20 02:25 39.85196 -104.69203 5346 ft 25 kts 271°
2026-04-20 02:25 39.85201 -104.69416 5338 ft 17 kts 270°
2026-04-20 02:26 39.85201 -104.69567 5340 ft 14 kts 270°
2026-04-20 02:26 39.85252 -104.69656 5338 ft 13 kts 349°
2026-04-20 02:26 39.85349 -104.69656 5336 ft 20 kts
2026-04-20 02:26 39.85715 -104.69652 5337 ft 86 kts
2026-04-20 02:27 39.86523 -104.69647 5335 ft 145 kts
2026-04-20 02:27 39.87681 -104.69626 5483 ft 179 kts
2026-04-20 02:27 39.88957 -104.69611 6142 ft 183 kts
2026-04-20 02:27 39.90273 -104.69746 6705 ft 203 kts 342°
2026-04-20 02:28 39.91464 -104.70921 6958 ft 232 kts 302°
2026-04-20 02:28 39.91898 -104.72999 7138 ft 251 kts 264°
2026-04-20 02:28 39.91307 -104.75151 7387 ft 265 kts 230°
2026-04-20 02:28 39.89924 -104.76834 7677 ft 280 kts 216°
2026-04-20 02:29 39.88372 -104.78425 8461 ft 284 kts 217°
2026-04-20 02:29 39.86834 -104.80035 9415 ft 284 kts 218°
2026-04-20 02:29 39.85308 -104.81655 9822 ft 281 kts 216°
2026-04-20 02:29 39.83730 -104.83205 9979 ft 290 kts 217°
2026-04-20 02:30 39.82162 -104.84880 9980 ft 290 kts 220°
2026-04-20 02:30 39.80689 -104.86587 9983 ft 286 kts 221°
2026-04-20 02:30 39.79219 -104.88351 9977 ft 283 kts 222°
2026-04-20 02:30 39.77844 -104.90175 10073 ft 285 kts 235°
2026-04-20 02:31 39.77021 -104.92537 10659 ft 291 kts 251°
2026-04-20 02:31 39.76456 -104.95085 11454 ft 293 kts 254°
2026-04-20 02:31 39.75932 -104.97598 12356 ft 293 kts 255°
2026-04-20 02:31 39.75373 -105.00219 12791 ft 312 kts 255°
2026-04-20 02:32 39.74746 -105.03040 12962 ft 336 kts 252°
2026-04-20 02:32 39.73881 -105.05975 13143 ft 359 kts 248°
2026-04-20 02:32 39.72855 -105.09037 13304 ft 379 kts 246°
2026-04-20 02:32 39.71767 -105.12224 13502 ft 395 kts 247°
2026-04-20 02:33 39.70647 -105.15538 13967 ft 403 kts 247°
2026-04-20 02:33 39.69536 -105.18878 14587 ft 404 kts 248°
2026-04-20 02:33 39.68429 -105.22239 15234 ft 404 kts 248°
2026-04-20 02:33 39.67322 -105.25610 15822 ft 407 kts 248°
2026-04-20 02:34 39.66208 -105.28999 16401 ft 409 kts 248°
2026-04-20 02:34 39.65085 -105.32414 16915 ft 413 kts 248°
2026-04-20 02:34 39.63950 -105.35851 17446 ft 416 kts 248°
2026-04-20 02:34 39.62806 -105.39314 18070 ft 418 kts 248°
2026-04-20 02:35 39.61659 -105.42793 18635 ft 420 kts 248°
2026-04-20 02:35 39.60506 -105.46285 19101 ft 422 kts 248°
2026-04-20 02:35 39.59349 -105.49787 19524 ft 426 kts 249°
2026-04-20 02:35 39.58169 -105.53333 19969 ft 430 kts 249°
2026-04-20 02:36 39.56987 -105.56879 20408 ft 432 kts 249°
2026-04-20 02:36 39.55789 -105.60468 20842 ft 435 kts 249°
2026-04-20 02:36 39.54623 -105.64101 21261 ft 438 kts 251°
2026-04-20 02:36 39.53562 -105.67827 21583 ft 443 kts 252°
2026-04-20 02:37 39.52539 -105.71614 21913 ft 447 kts 253°
2026-04-20 02:37 39.51520 -105.75424 22365 ft 448 kts 253°
2026-04-20 02:37 39.50490 -105.79238 22810 ft 449 kts 253°
2026-04-20 02:37 39.49442 -105.83074 23190 ft 452 kts 253°
2026-04-20 02:38 39.48381 -105.86916 23535 ft 455 kts 253°
2026-04-20 02:38 39.47316 -105.90741 23852 ft 457 kts 253°
2026-04-20 02:38 39.46233 -105.94621 24174 ft 459 kts 253°
2026-04-20 02:38 39.45142 -105.98518 24497 ft 461 kts 253°
2026-04-20 02:39 39.44046 -106.02429 24793 ft 462 kts 252°
2026-04-20 02:39 39.42947 -106.06344 25086 ft 464 kts 252°
2026-04-20 02:39 39.41841 -106.10287 25354 ft 466 kts 252°
2026-04-20 02:39 39.40734 -106.14226 25641 ft 467 kts 252°
2026-04-20 02:40 39.39631 -106.18140 25933 ft 469 kts 252°
2026-04-20 02:40 39.38509 -106.22116 26223 ft 470 kts 252°
2026-04-20 02:40 39.37386 -106.26084 26717 ft 469 kts 252°
2026-04-20 02:40 39.36265 -106.30040 27144 ft 467 kts 253°
2026-04-20 02:41 39.35150 -106.33968 27588 ft 464 kts 253°
2026-04-20 02:41 39.34040 -106.37875 27982 ft 463 kts 252°
2026-04-20 02:41 39.32928 -106.41788 28324 ft 463 kts 252°
2026-04-20 02:41 39.31820 -106.45682 28680 ft 462 kts 252°
2026-04-20 02:42 39.30709 -106.49577 29091 ft 460 kts 252°
2026-04-20 02:42 39.29604 -106.53446 29536 ft 458 kts 252°
2026-04-20 02:42 39.28518 -106.57247 29957 ft 456 kts 253°
2026-04-20 02:42 39.27418 -106.61089 30314 ft 455 kts 253°
2026-04-20 02:43 39.26321 -106.64917 30640 ft 455 kts 253°
2026-04-20 02:43 39.25224 -106.68734 30999 ft 453 kts 253°
2026-04-20 02:43 39.24024 -106.72483 31390 ft 454 kts 244°
2026-04-20 02:43 39.22184 -106.75813 31777 ft 457 kts 234°
2026-04-20 02:44 39.20183 -106.78984 32189 ft 454 kts 234°
2026-04-20 02:44 39.18194 -106.82146 32546 ft 453 kts 234°
2026-04-20 02:44 39.16218 -106.85310 32899 ft 452 kts 235°
2026-04-20 02:44 39.14264 -106.88461 33118 ft 451 kts 235°
2026-04-20 02:45 39.12320 -106.91612 33516 ft 448 kts 236°
2026-04-20 02:45 39.10390 -106.94751 33901 ft 446 kts 236°
2026-04-20 02:45 39.08469 -106.97879 34120 ft 445 kts 236°
2026-04-20 02:46 39.04617 -107.04152 34105 ft 446 kts 236°
2026-04-20 02:46 39.00764 -107.10413 34109 ft 445 kts 235°
2026-04-20 02:47 38.96923 -107.16639 34120 ft 444 kts 234°
2026-04-20 02:47 38.93085 -107.22848 34106 ft 444 kts 234°
2026-04-20 02:48 38.89245 -107.29046 34119 ft 443 kts 234°
2026-04-20 02:48 38.85429 -107.35195 34102 ft 443 kts 234°
2026-04-20 02:49 38.81583 -107.41379 34118 ft 443 kts 234°
2026-04-20 02:49 38.77729 -107.47566 34091 ft 443 kts 234°
2026-04-20 02:50 38.73884 -107.53725 34100 ft 443 kts 234°
2026-04-20 02:50 38.70029 -107.59887 34100 ft 443 kts 234°
2026-04-20 02:51 38.66168 -107.66049 34084 ft 442 kts 233°
2026-04-20 02:51 38.62316 -107.72183 34084 ft 441 kts 233°
2026-04-20 02:52 38.58472 -107.78294 34087 ft 440 kts 233°
2026-04-20 02:52 38.54658 -107.84345 34198 ft 439 kts 233°
2026-04-20 02:53 38.50817 -107.90429 34185 ft 439 kts 233°
2026-04-20 02:53 38.47629 -107.95470 34197 ft 438 kts 233°
2026-04-20 02:54 38.43167 -108.02510 34183 ft 438 kts 233°
2026-04-20 02:54 38.39964 -108.07555 34168 ft 438 kts 233°
2026-04-20 02:55 38.36122 -108.13598 34141 ft 438 kts 233°
2026-04-20 02:55 38.32301 -108.19595 34121 ft 439 kts 233°
2026-04-20 02:56 38.28447 -108.25631 34122 ft 439 kts 233°
2026-04-20 02:56 38.24569 -108.31696 34113 ft 440 kts 233°
2026-04-20 02:57 38.20720 -108.37702 34113 ft 440 kts 232°
2026-04-20 02:57 38.16841 -108.43745 34115 ft 441 kts 232°
2026-04-20 02:58 38.12950 -108.49795 34113 ft 442 kts 232°
2026-04-20 02:58 38.09050 -108.55848 34112 ft 443 kts 232°
2026-04-20 02:59 38.05138 -108.61908 34110 ft 444 kts 232°
2026-04-20 02:59 38.01232 -108.67948 34115 ft 445 kts 232°
2026-04-20 03:00 37.97297 -108.74021 34099 ft 446 kts 231°
2026-04-20 03:00 37.93350 -108.80100 34117 ft 446 kts 231°
2026-04-20 03:01 37.89408 -108.86163 34110 ft 445 kts 231°
2026-04-20 03:01 37.85463 -108.92217 34106 ft 445 kts 231°
2026-04-20 03:02 37.81531 -108.98240 34107 ft 444 kts 231°
2026-04-20 03:02 37.77582 -109.04278 34093 ft 444 kts 231°
2026-04-20 03:03 37.73650 -109.10280 34110 ft 443 kts 231°
2026-04-20 03:03 37.69724 -109.16260 34118 ft 443 kts 231°
2026-04-20 03:04 37.65781 -109.22256 34132 ft 443 kts 231°
2026-04-20 03:04 37.61867 -109.28198 34147 ft 443 kts 231°
2026-04-20 03:05 37.57929 -109.34164 34164 ft 442 kts 231°
2026-04-20 03:05 37.53968 -109.40155 34176 ft 442 kts 231°
2026-04-20 03:06 37.50051 -109.46068 34181 ft 442 kts 231°
2026-04-20 03:06 37.46099 -109.52024 34158 ft 443 kts 230°
2026-04-20 03:07 37.42138 -109.57983 34139 ft 444 kts 230°
2026-04-20 03:07 37.38164 -109.63950 34115 ft 445 kts 230°
2026-04-20 03:08 37.34184 -109.69915 34049 ft 445 kts 230°
2026-04-20 03:08 37.30207 -109.75864 34046 ft 445 kts 230°
2026-04-20 03:09 37.26241 -109.81787 34052 ft 445 kts 230°
2026-04-20 03:09 37.22258 -109.87724 34048 ft 445 kts 229°
2026-04-20 03:10 37.18265 -109.93665 34037 ft 444 kts 229°
2026-04-20 03:10 37.14285 -109.99577 34034 ft 444 kts 229°
2026-04-20 03:11 37.10305 -110.05478 34035 ft 443 kts 229°
2026-04-20 03:11 37.06321 -110.11374 34038 ft 443 kts 229°
2026-04-20 03:12 37.02332 -110.17267 34035 ft 443 kts 229°
2026-04-20 03:12 36.98349 -110.23142 34030 ft 443 kts 229°
2026-04-20 03:13 36.94376 -110.28990 34036 ft 442 kts 229°
2026-04-20 03:13 36.90389 -110.34850 34028 ft 442 kts 229°
2026-04-20 03:14 36.86406 -110.40692 34034 ft 441 kts 229°
2026-04-20 03:14 36.82427 -110.46519 34034 ft 441 kts 229°
2026-04-20 03:15 36.78468 -110.52305 34035 ft 438 kts 230°
2026-04-20 03:15 36.74511 -110.58080 34024 ft 436 kts 230°
2026-04-20 03:16 36.70571 -110.63820 34018 ft 435 kts 230°
2026-04-20 03:16 36.66639 -110.69538 34020 ft 434 kts 230°
2026-04-20 03:17 36.62734 -110.75207 34009 ft 434 kts 230°
2026-04-20 03:17 36.58800 -110.80909 34005 ft 434 kts 229°
2026-04-20 03:18 36.54874 -110.86589 34003 ft 432 kts 229°
2026-04-20 03:18 36.50956 -110.92247 33992 ft 431 kts 229°
2026-04-20 03:19 36.47043 -110.97889 33990 ft 430 kts 229°
2026-04-20 03:19 36.43157 -111.03484 33993 ft 430 kts 229°
2026-04-20 03:20 36.39246 -111.09105 33988 ft 430 kts 229°
2026-04-20 03:20 36.35315 -111.14744 34000 ft 430 kts 229°
2026-04-20 03:21 36.31392 -111.20363 33983 ft 430 kts 229°
2026-04-20 03:21 36.27472 -111.25969 33982 ft 430 kts 229°
2026-04-20 03:22 36.23569 -111.31540 33986 ft 431 kts 229°
2026-04-20 03:22 36.19636 -111.37146 33977 ft 431 kts 229°
2026-04-20 03:23 36.15690 -111.42759 33978 ft 432 kts 229°
2026-04-20 03:23 36.11738 -111.48372 33984 ft 432 kts 229°
2026-04-20 03:24 36.07807 -111.53948 33995 ft 433 kts 228°
2026-04-20 03:24 36.03843 -111.59560 33999 ft 433 kts 228°
2026-04-20 03:25 35.99875 -111.65169 33992 ft 433 kts 228°
2026-04-20 03:25 35.95906 -111.70769 34000 ft 433 kts 228°
2026-04-20 03:26 35.91931 -111.76370 34032 ft 433 kts 228°
2026-04-20 03:26 35.87975 -111.81936 34069 ft 433 kts 227°
2026-04-20 03:27 35.84031 -111.87573 34017 ft 435 kts 231°
2026-04-20 03:27 35.80942 -111.93997 34025 ft 436 kts 239°
2026-04-20 03:28 35.78046 -112.00577 34029 ft 437 kts 239°
2026-04-20 03:28 35.73633 -112.10385 34032 ft 436 kts 239°
2026-04-20 03:29 35.70639 -112.16835 34038 ft 437 kts 238°
2026-04-20 03:29 35.67575 -112.23306 34021 ft 438 kts 238°
2026-04-20 03:30 35.64505 -112.29808 34026 ft 438 kts 238°
2026-04-20 03:30 35.61448 -112.36290 34017 ft 438 kts 238°
2026-04-20 03:31 35.58411 -112.42748 34013 ft 439 kts 238°
2026-04-20 03:31 35.55362 -112.49286 34002 ft 440 kts 238°
2026-04-20 03:32 35.52324 -112.55790 33995 ft 441 kts 238°
2026-04-20 03:32 35.49263 -112.62328 33979 ft 442 kts 238°
2026-04-20 03:33 35.46192 -112.68868 33992 ft 442 kts 238°
2026-04-20 03:33 35.43120 -112.75400 33984 ft 442 kts 237°
2026-04-20 03:34 35.40044 -112.81927 33969 ft 444 kts 238°
2026-04-20 03:34 35.36945 -112.88490 33982 ft 446 kts 238°
2026-04-20 03:35 35.33845 -112.95042 33968 ft 448 kts 238°
2026-04-20 03:35 35.30712 -113.01654 33958 ft 449 kts 238°
2026-04-20 03:36 35.27573 -113.08266 33950 ft 449 kts 238°
2026-04-20 03:36 35.24430 -113.14875 33950 ft 448 kts 238°
2026-04-20 03:37 35.21293 -113.21464 33942 ft 447 kts 238°
2026-04-20 03:37 35.18185 -113.27996 33923 ft 446 kts 238°
2026-04-20 03:38 35.15060 -113.34553 33926 ft 446 kts 238°
2026-04-20 03:38 35.11937 -113.41095 33911 ft 445 kts 238°
2026-04-20 03:39 35.08819 -113.47613 33910 ft 444 kts 238°
2026-04-20 03:39 35.05697 -113.54125 33883 ft 444 kts 238°
2026-04-20 03:40 35.02593 -113.60589 33887 ft 444 kts 238°
2026-04-20 03:40 34.99463 -113.67095 33871 ft 444 kts 238°
2026-04-20 03:41 34.96860 -113.72495 33868 ft 444 kts 238°
2026-04-20 03:41 34.93219 -113.80038 33862 ft 444 kts 238°
2026-04-20 03:42 34.90590 -113.85475 33855 ft 444 kts 238°
2026-04-20 03:42 34.87474 -113.91908 33846 ft 443 kts 238°
2026-04-20 03:43 34.84259 -113.98336 33847 ft 443 kts 236°
2026-04-20 03:43 34.80956 -114.04681 33826 ft 443 kts 236°
2026-04-20 03:44 34.77660 -114.11019 33841 ft 443 kts 236°
2026-04-20 03:44 34.74397 -114.17317 33833 ft 443 kts 236°
2026-04-20 03:45 34.71117 -114.23648 33835 ft 443 kts 236°
2026-04-20 03:45 34.67829 -114.29984 33858 ft 443 kts 236°
2026-04-20 03:46 34.64531 -114.36325 33861 ft 444 kts 236°
2026-04-20 03:46 34.60888 -114.42353 33842 ft 443 kts 227°
2026-04-20 03:47 34.56737 -114.47898 33834 ft 443 kts 226°
2026-04-20 03:47 34.52613 -114.53418 33838 ft 444 kts 227°
2026-04-20 03:48 34.48503 -114.59042 33826 ft 444 kts 227°
2026-04-20 03:48 34.44411 -114.64676 33822 ft 444 kts 227°
2026-04-20 03:49 34.40351 -114.70259 33820 ft 445 kts 227°
2026-04-20 03:49 34.36257 -114.75872 33813 ft 445 kts 227°
2026-04-20 03:50 34.32149 -114.81492 33828 ft 446 kts 227°
2026-04-20 03:50 34.28026 -114.87122 33829 ft 447 kts 227°
2026-04-20 03:51 34.23901 -114.92749 33829 ft 447 kts 227°
2026-04-20 03:51 34.19767 -114.98380 33827 ft 448 kts 227°
2026-04-20 03:52 34.15649 -115.03982 33829 ft 448 kts 228°
2026-04-20 03:52 34.11510 -115.09603 33834 ft 448 kts 228°
2026-04-20 03:53 34.07361 -115.15228 33832 ft 448 kts 228°
2026-04-20 03:53 34.03211 -115.20846 33831 ft 448 kts 228°
2026-04-20 03:54 33.99054 -115.26465 33835 ft 449 kts 228°
2026-04-20 03:54 33.94920 -115.32061 33844 ft 449 kts 228°
2026-04-20 03:55 33.90729 -115.37739 33847 ft 452 kts 229°
2026-04-20 03:55 33.86566 -115.43371 33856 ft 454 kts 229°
2026-04-20 03:56 33.82360 -115.49049 33856 ft 455 kts 228°
2026-04-20 03:56 33.78150 -115.54724 33863 ft 455 kts 228°
2026-04-20 03:57 33.73929 -115.60408 33855 ft 456 kts 228°
2026-04-20 03:57 33.69695 -115.66089 33787 ft 457 kts 229°
2026-04-20 03:58 33.67542 -115.68938 33119 ft 461 kts 229°
2026-04-20 03:58 33.65387 -115.71778 32395 ft 458 kts 229°
2026-04-20 03:58 33.63273 -115.74563 31653 ft 457 kts 228°
2026-04-20 03:58 33.61176 -115.77435 30859 ft 458 kts 232°
2026-04-20 03:59 33.59308 -115.80535 30058 ft 459 kts 235°
2026-04-20 03:59 33.57547 -115.83738 29091 ft 460 kts 236°
2026-04-20 03:59 33.55788 -115.86960 28115 ft 461 kts 236°
2026-04-20 03:59 33.54000 -115.90144 27164 ft 461 kts 235°
2026-04-20 04:00 33.52178 -115.93308 26165 ft 462 kts 235°
2026-04-20 04:00 33.50324 -115.96493 25371 ft 460 kts 236°
2026-04-20 04:00 33.48532 -115.99574 24682 ft 453 kts 236°
2026-04-20 04:00 33.46733 -116.02671 23985 ft 453 kts 236°
2026-04-20 04:01 33.44931 -116.05776 23253 ft 454 kts 236°
2026-04-20 04:01 33.43131 -116.08879 22456 ft 451 kts 236°
2026-04-20 04:01 33.41353 -116.11941 21739 ft 445 kts 235°
2026-04-20 04:01 33.39594 -116.14966 21069 ft 440 kts 235°
2026-04-20 04:02 33.37849 -116.17966 20400 ft 436 kts 234°
2026-04-20 04:02 33.36120 -116.20934 19748 ft 433 kts 234°
2026-04-20 04:02 33.34352 -116.23836 19088 ft 430 kts 228°
2026-04-20 04:02 33.32080 -116.26092 18562 ft 425 kts 210°
2026-04-20 04:03 33.29468 -116.27689 17993 ft 420 kts 205°
2026-04-20 04:03 33.26841 -116.29179 17390 ft 416 kts 204°
2026-04-20 04:03 33.24235 -116.30649 16834 ft 412 kts 204°
2026-04-20 04:03 33.21654 -116.32120 16298 ft 409 kts 204°
2026-04-20 04:04 33.19101 -116.33593 15767 ft 406 kts 205°
2026-04-20 04:04 33.16598 -116.35048 15256 ft 404 kts 205°
2026-04-20 04:04 33.14073 -116.36523 14741 ft 403 kts 205°
2026-04-20 04:04 33.11563 -116.37991 14221 ft 399 kts 205°
2026-04-20 04:05 33.09088 -116.39438 13749 ft 393 kts 205°
2026-04-20 04:05 33.06649 -116.40863 13195 ft 386 kts 205°
2026-04-20 04:05 33.04256 -116.42259 12672 ft 379 kts 204°
2026-04-20 04:05 33.01915 -116.43624 12171 ft 369 kts 205°
2026-04-20 04:06 32.99722 -116.45096 11759 ft 353 kts 215°
2026-04-20 04:06 32.97907 -116.46895 11474 ft 336 kts 219°
2026-04-20 04:06 32.96194 -116.48695 11179 ft 322 kts 219°
2026-04-20 04:06 32.94524 -116.50440 10918 ft 317 kts 219°
2026-04-20 04:07 32.92879 -116.52137 10629 ft 307 kts 219°
2026-04-20 04:07 32.91293 -116.53757 10356 ft 295 kts 218°
2026-04-20 04:07 32.89758 -116.55313 10104 ft 287 kts 218°
2026-04-20 04:07 32.88248 -116.56837 9855 ft 283 kts 218°
2026-04-20 04:08 32.86753 -116.58342 9599 ft 280 kts 218°
2026-04-20 04:08 32.85273 -116.59831 9327 ft 277 kts 218°
2026-04-20 04:08 32.83807 -116.61306 9073 ft 274 kts 218°
2026-04-20 04:08 32.82359 -116.62764 8826 ft 271 kts 218°
2026-04-20 04:09 32.80924 -116.64210 8585 ft 268 kts 218°
2026-04-20 04:09 32.79504 -116.65639 8339 ft 266 kts 218°
2026-04-20 04:09 32.78112 -116.67037 8095 ft 263 kts 218°
2026-04-20 04:09 32.76891 -116.68655 7832 ft 265 kts 237°
2026-04-20 04:10 32.76015 -116.70575 7580 ft 264 kts 239°
2026-04-20 04:10 32.75144 -116.72476 7313 ft 262 kts 239°
2026-04-20 04:10 32.74264 -116.74360 7062 ft 261 kts 238°
2026-04-20 04:10 32.73382 -116.76239 6790 ft 260 kts 238°
2026-04-20 04:11 32.72501 -116.78107 6533 ft 258 kts 238°
2026-04-20 04:11 32.71622 -116.79961 6273 ft 258 kts 238°
2026-04-20 04:11 32.70750 -116.81810 5988 ft 258 kts 240°
2026-04-20 04:11 32.70047 -116.83778 5675 ft 255 kts 248°
2026-04-20 04:12 32.69459 -116.85743 5383 ft 250 kts 249°
2026-04-20 04:12 32.68883 -116.87664 5094 ft 244 kts 248°
2026-04-20 04:12 32.68335 -116.89549 4829 ft 238 kts 249°
2026-04-20 04:12 32.67818 -116.91332 4577 ft 226 kts 249°
2026-04-20 04:13 32.67348 -116.93083 4299 ft 215 kts 258°
2026-04-20 04:13 32.67541 -116.94814 4043 ft 212 kts 289°
2026-04-20 04:13 32.67981 -116.96437 3803 ft 207 kts 283°
2026-04-20 04:13 32.68340 -116.98075 3556 ft 203 kts 283°
2026-04-20 04:14 32.68708 -116.99681 3320 ft 199 kts 284°
2026-04-20 04:14 32.69080 -117.01253 3082 ft 195 kts 285°
2026-04-20 04:14 32.69448 -117.02785 2875 ft 190 kts 285°
2026-04-20 04:14 32.69804 -117.04268 2644 ft 184 kts 285°
2026-04-20 04:15 32.70149 -117.05697 2403 ft 180 kts 285°
2026-04-20 04:15 32.70487 -117.07099 2164 ft 172 kts 285°
2026-04-20 04:15 32.70813 -117.08451 1998 ft 171 kts 285°
2026-04-20 04:15 32.71140 -117.09805 1744 ft 169 kts 285°
2026-04-20 04:16 32.71462 -117.11139 1459 ft 164 kts 285°
2026-04-20 04:16 32.71762 -117.12381 1202 ft 149 kts 285°
2026-04-20 04:16 32.72038 -117.13518 1008 ft 140 kts 285°
2026-04-20 04:16 32.72302 -117.14620 781 ft 139 kts 285°
2026-04-20 04:17 32.72570 -117.15727 535 ft 139 kts 285°
2026-04-20 04:17 32.72837 -117.16822 325 ft 140 kts 285°
2026-04-20 04:17 32.73104 -117.17925 100 ft 137 kts 286°
2026-04-20 04:17 32.73363 -117.19000 24 ft 133 kts 286°
2026-04-20 04:18 32.73520 -117.19658 28 ft 37 kts 286°
2026-04-20 04:18 32.73498 -117.19881 25 ft 7 kts 250°
2026-04-20 04:18 32.73494 -117.19892 23 ft 0 kts 250°
2026-04-20 04:19 32.73491 -117.19952 22 ft 22 kts 279°
2026-04-20 04:19 32.73525 -117.20083 21 ft 13 kts 287°
2026-04-20 04:19 32.73539 -117.20140 22 ft 6 kts 287°
2026-04-20 04:19 32.73543 -117.20189 22 ft 6 kts 248°
2026-04-20 04:20 32.73518 -117.20231 22 ft 6 kts 218°
2026-04-20 04:20 32.73474 -117.20250 22 ft 7 kts 195°
2026-04-20 04:20 32.73428 -117.20277 21 ft 7 kts 234°
2026-04-20 04:20 32.73423 -117.20301 20 ft 3 kts 255°
2026-04-20 04:21 32.73422 -117.20324 20 ft 0 kts 269°
2026-04-20 04:21 32.73422 -117.20326 20 ft 1 kts 269°
2026-04-20 04:21 32.73422 -117.20333 20 ft 0 kts 269°